Main page
Satellite images Climate Cyclones Lightning AirportsFAQ Languages Contact Newsletter About
Weather : Europe Africa North America South America Asia Australia-Oceania Others

udon-thani-th, Khon Kaen, Khon Kaen Airport

48381

latitude: , longitude: Thailand, elevation: 16-26N m


METAR: VTUK 180200Z 02004KT 350V050 7000 -RA SCT006 BKN020 OVC080 26/25 Q1001 NOSIG